[TLELIST] Archives

 

Current TLEs

October 11th 2006 PDT

HST 1 20580U 90037B 06283.59608518 .00000495 00000-0 25718-4 0 7167 2 20580 028.4680 017.5152 0003521 326.6500 033.3867 15.00107023702445 ISS (ZARYA) 1 25544U 98067A 06284.47508898 .00019914 00000-0 12415-3 0 8381 2 25544 051.6364 308.3745 0013302 084.0334 065.8560 15.76811622451502 CXO 1 25867U 99040B 06284.08333333 +.00000267 +00000-0 +00000-0 0 09878 2 25867 060.4105 094.4843 5916077 288.7224 356.3961 00.37802461001315 ____________________________________________________________________ These 2-Line ...Continue Reading

Current TLEs

October 10th 2006 PDT

HST 1 20580U 90037B 06281.66667911 +.00000487 +00000-0 +25100-4 0 07385 2 20580 028.4674 030.0937 0003670 303.3150 056.7086 15.00105639702158 ISS (ZARYA) 1 25544U 98067A 06283.13516091 .00018238 00000-0 11437-3 0 8300 2 25544 051.6371 315.2854 0013302 079.0641 019.6741 15.76750912451291 CXO 1 25867U 99040B 06281.45833333 +.00000343 +00000-0 +00000-0 0 09865 2 25867 060.3858 094.5556 5916844 288.7535 359.0513 00.37808274001308 ____________________________________________________________________ These 2-Line ...Continue Reading

Current TLEs

October 9th 2006 PDT

HST 1 20580U 90037B 06280.66870988 .00000479 00000-0 24447-4 0 7142 2 20580 028.4674 036.5988 0003799 290.8971 069.1212 15.00104919702001 ISS (ZARYA) 1 25544U 98067A 06282.45690972 .00016292 00000-0 10277-3 0 8247 2 25544 051.6358 318.7857 0013111 076.8455 129.3549 15.76722217451183 CXO 1 25867U 99040B 06281.45833333 +.00000343 +00000-0 +00000-0 0 09865 2 25867 060.3858 094.5556 5916844 288.7535 359.0513 00.37808274001308 ____________________________________________________________________ These 2-Line ...Continue Reading

Current TLEs

October 8th 2006 PDT

HST 1 20580U 90037B 06280.66870988 .00000479 00000-0 24447-4 0 7142 2 20580 028.4674 036.5988 0003799 290.8971 069.1212 15.00104919702001 ISS (ZARYA) 1 25544U 98067A 06281.48392575 .00011403 00000-0 73354-4 0 8185 2 25544 051.6362 323.8031 0013187 073.3916 006.2694 15.76676522451031 CXO 1 25867U 99040B 06278.79166667 +.00000420 +00000-0 +00000-0 0 09852 2 25867 060.3560 094.6359 5914486 288.7496 356.1191 00.37809647001299 ____________________________________________________________________ These 2-Line ...Continue Reading

Current TLEs

October 7th 2006 PDT

HST 1 20580U 90037B 06278.60624324 +.00000443 +00000-0 +21651-4 0 07206 2 20580 028.4673 050.0573 0003766 270.4084 089.6076 15.00103374701697 ISS (ZARYA) 1 25544U 98067A 06280.49229167 .00016890 00000-0 10676-3 0 8138 2 25544 051.6372 328.9099 0013018 069.9140 137.4189 15.76644862450874 CXO 1 25867U 99040B 06278.79166667 +.00000420 +00000-0 +00000-0 0 09852 2 25867 060.3560 094.6359 5914486 288.7496 356.1191 00.37809647001299 ____________________________________________________________________ These 2-Line ...Continue Reading

Current TLEs

October 6th 2006 PDT

HST 1 20580U 90037B 06277.80786798 +.00000426 +00000-0 +20344-4 0 07299 2 20580 028.4673 055.2622 0003768 262.2061 097.8100 15.00102802701576 ISS (ZARYA) 1 25544U 98067A 06279.32376627 .00015725 00000-0 99882-4 0 8078 2 25544 051.6369 334.9381 0013150 064.5151 345.9429 15.76598931450699 CXO 1 25867U 99040B 06278.79166667 +.00000420 +00000-0 +00000-0 0 09852 2 25867 060.3560 094.6359 5914486 288.7496 356.1191 00.37809647001299 ____________________________________________________________________ These 2-Line ...Continue Reading

Current TLEs

October 5th 2006 PDT

HST 1 20580U 90037B 06278.40664948 .00000444 00000-0 21753-4 0 7125 2 20580 028.4672 051.3595 0003789 268.3005 091.7152 15.00103252701669 ISS (ZARYA) 1 25544U 98067A 06278.44810878 .00015343 00000-0 97699-4 0 8037 2 25544 051.6370 339.4500 0012938 062.1319 054.9952 15.76569551450556 CXO 1 25867U 99040B 06276.16666667 +.00000439 +00000-0 +00000-0 0 09845 2 25867 060.3345 094.6960 5909423 288.7630 358.8199 00.37804917001284 ____________________________________________________________________ These 2-Line ...Continue Reading

Current TLEs

October 4th 2006 PDT

HST 1 20580U 90037B 06276.80989868 .00000412 00000-0 19192-4 0 7116 2 20580 028.4672 061.7688 0003847 252.1775 107.8402 15.00102135701427 ISS (ZARYA) 1 25544U 98067A 06277.30883087 .00013210 00000-0 84855-4 0 7954 2 25544 051.6381 345.3276 0012894 059.6548 067.0328 15.76531108450379 CXO 1 25867U 99040B 06276.16666667 +.00000439 +00000-0 +00000-0 0 09845 2 25867 060.3345 094.6960 5909423 288.7630 358.8199 00.37804917001284 ____________________________________________________________________ These 2-Line ...Continue Reading

Current TLEs

October 3rd 2006 PDT

HST 1 20580U 90037B 06273.81598957 +.00000360 +00000-0 +15188-4 0 07291 2 20580 028.4673 081.2861 0003763 221.6051 138.4252 15.00100496700973 ISS (ZARYA) 1 25544U 98067A 06275.48181713 .00021761 00000-0 13733-3 0 7842 2 25544 051.6376 354.7407 0012860 050.9711 139.6455 15.76471503450089 CXO 1 25867U 99040B 06273.54166667 +.00000434 +00000-0 +00000-0 0 09833 2 25867 060.3189 094.7443 5904704 288.8117 001.4504 00.37803892001276 ____________________________________________________________________ These 2-Line ...Continue Reading

Current TLEs

October 2nd 2006 PDT

HST 1 20580U 90037B 06273.81598957 +.00000360 +00000-0 +15188-4 0 07291 2 20580 028.4673 081.2861 0003763 221.6051 138.4252 15.00100496700973 ISS (ZARYA) 1 25544U 98067A 06275.48181713 .00021761 00000-0 13733-3 0 7831 2 25544 051.6376 354.7407 0012860 050.9711 139.6455 15.76471503450089 CXO 1 25867U 99040B 06273.54166667 +.00000434 +00000-0 +00000-0 0 09833 2 25867 060.3189 094.7443 5904704 288.8117 001.4504 00.37803892001276 ____________________________________________________________________ These 2-Line ...Continue Reading
  • This mailing list is a public mailing list - anyone may join or leave, at any time.
  • This mailing list is announce-only.

International Space Station (ISS) / Hubble Space Telescope (HST) / Chandra X-Ray Observatory Orbital Data via EMAIL

Privacy Policy:

Private list